Time,TemperatureF,DewpointF,PressureIn,WindDirection,WindDirectionDegrees,WindSpeedMPH,WindSpeedGustMPH,Humidity,HourlyPrecipIn,Conditions,Clouds,dailyrainin,SoftwareType,DateUTC
2013-08-21 00:01:00,69.2,67.4,30.23,WNW,288,0.0,0.0,94,0.00,RA,,0.00,WeatherDisplay:10.37,2013-08-21 04:01:00,
2013-08-21 00:03:00,69.2,67.4,30.23,WNW,288,0.0,0.0,94,0.00,RA,,0.00,WeatherDisplay:10.37,2013-08-21 04:03:00,
2013-08-21 00:08:00,69.2,67.4,30.23,WNW,288,0.0,0.0,94,0.00,RA,,0.00,WeatherDisplay:10.37,2013-08-21 04:08:00,
2013-08-21 00:13:00,69.0,67.2,30.23,WNW,288,0.0,0.0,94,0.00,RA,,0.00,WeatherDisplay:10.37,2013-08-21 04:13:00,
2013-08-21 00:18:00,69.0,67.2,30.23,WNW,288,0.0,0.0,94,0.00,RA,,0.00,WeatherDisplay:10.37,2013-08-21 04:18:00,
2013-08-21 00:23:00,68.9,67.1,30.24,WNW,288,0.0,0.0,94,0.00,RA,,0.00,WeatherDisplay:10.37,2013-08-21 04:23:00,
2013-08-21 00:28:00,68.8,67.0,30.24,WNW,288,0.0,0.0,94,0.00,RA,,0.00,WeatherDisplay:10.37,2013-08-21 04:28:00,
2013-08-21 00:33:00,68.7,66.9,30.24,WNW,288,0.0,0.0,94,0.00,FEW,,0.00,WeatherDisplay:10.37,2013-08-21 04:33:00,
2013-08-21 00:38:00,68.5,66.7,30.24,WNW,288,0.0,0.0,94,0.00,FEW,,0.00,WeatherDisplay:10.37,2013-08-21 04:38:00,
2013-08-21 00:43:00,68.4,66.6,30.24,WNW,288,0.0,0.0,94,0.00,FEW,,0.00,WeatherDisplay:10.37,2013-08-21 04:43:00,
2013-08-21 00:48:00,68.3,66.5,30.24,WNW,288,0.0,0.0,94,0.00,FEW,,0.00,WeatherDisplay:10.37,2013-08-21 04:48:00,
2013-08-21 00:53:00,68.2,66.7,30.24,WNW,288,0.0,0.0,95,0.00,FEW,,0.00,WeatherDisplay:10.37,2013-08-21 04:53:00,
2013-08-21 00:58:00,68.2,66.7,30.24,WNW,288,0.0,0.0,95,0.00,FEW,,0.00,WeatherDisplay:10.37,2013-08-21 04:58:00,
2013-08-21 01:03:00,68.1,66.6,30.24,WNW,288,0.0,0.0,95,0.00,FEW,,0.00,WeatherDisplay:10.37,2013-08-21 05:03:00,
2013-08-21 01:08:00,68.1,66.6,30.24,WNW,288,0.0,0.0,95,0.00,FEW,,0.00,WeatherDisplay:10.37,2013-08-21 05:08:00,
2013-08-21 01:13:00,67.9,66.4,30.23,WNW,288,0.0,0.0,95,0.00,FEW,,0.00,WeatherDisplay:10.37,2013-08-21 05:13:00,
2013-08-21 01:18:00,67.9,66.4,30.24,West,266,0.0,0.0,95,0.00,FEW,,0.00,WeatherDisplay:10.37,2013-08-21 05:18:00,
2013-08-21 01:23:00,67.8,66.3,30.23,West,266,0.0,0.0,95,0.00,FEW,,0.00,WeatherDisplay:10.37,2013-08-21 05:23:00,
2013-08-21 01:28:00,67.8,66.3,30.23,West,267,0.0,0.0,95,0.00,FEW,,0.00,WeatherDisplay:10.37,2013-08-21 05:28:00,
2013-08-21 01:33:00,67.7,66.2,30.23,West,267,0.0,0.0,95,0.00,FEW,,0.00,WeatherDisplay:10.37,2013-08-21 05:33:00,
2013-08-21 01:38:00,67.6,66.1,30.23,West,267,0.0,0.0,95,0.00,FEW,,0.00,WeatherDisplay:10.37,2013-08-21 05:38:00,
2013-08-21 01:43:00,67.6,66.1,30.23,WSW,251,0.0,0.0,95,0.00,FEW,,0.00,WeatherDisplay:10.37,2013-08-21 05:43:00,
2013-08-21 01:48:00,67.5,66.0,30.23,WSW,252,0.0,0.0,95,0.00,FEW,,0.00,WeatherDisplay:10.37,2013-08-21 05:48:00,
2013-08-21 01:53:00,67.5,66.0,30.23,WSW,252,0.0,0.0,95,0.00,FEW,,0.00,WeatherDisplay:10.37,2013-08-21 05:53:00,
2013-08-21 01:58:00,67.5,66.0,30.23,WSW,252,0.0,0.0,95,0.00,FEW,,0.00,WeatherDisplay:10.37,2013-08-21 05:58:00,
2013-08-21 02:03:00,67.5,66.0,30.23,WSW,252,0.0,0.0,95,0.00,FEW,,0.00,WeatherDisplay:10.37,2013-08-21 06:03:00,
2013-08-21 02:08:00,67.4,65.9,30.23,WSW,252,0.0,0.0,95,0.00,FEW,,0.00,WeatherDisplay:10.37,2013-08-21 06:08:00,
2013-08-21 02:13:00,67.3,65.8,30.22,WSW,252,0.0,0.0,95,0.00,FEW,,0.00,WeatherDisplay:10.37,2013-08-21 06:13:00,
2013-08-21 02:18:00,67.3,65.8,30.22,WSW,252,0.0,0.0,95,0.00,FEW,,0.00,WeatherDisplay:10.37,2013-08-21 06:18:00,
2013-08-21 02:23:00,67.2,65.7,30.22,WSW,251,0.0,0.0,95,0.00,FEW,,0.00,WeatherDisplay:10.37,2013-08-21 06:23:00,
2013-08-21 02:28:00,67.1,65.6,30.22,WSW,252,0.0,0.0,95,0.00,FEW,,0.00,WeatherDisplay:10.37,2013-08-21 06:28:00,
2013-08-21 02:33:00,67.0,65.5,30.22,WSW,251,0.0,0.0,95,0.00,FEW,,0.00,WeatherDisplay:10.37,2013-08-21 06:33:00,
2013-08-21 02:38:00,66.9,65.4,30.23,WSW,252,0.0,0.0,95,0.00,FEW,,0.00,WeatherDisplay:10.37,2013-08-21 06:38:00,
2013-08-21 02:43:00,66.8,65.3,30.23,WSW,252,0.0,0.0,95,0.00,FEW,,0.00,WeatherDisplay:10.37,2013-08-21 06:43:00,
2013-08-21 02:48:00,66.7,65.2,30.23,WSW,252,0.0,0.0,95,0.00,FEW,,0.00,WeatherDisplay:10.37,2013-08-21 06:48:00,
2013-08-21 02:53:00,66.6,65.1,30.23,WSW,252,0.0,0.0,95,0.00,FEW,,0.00,WeatherDisplay:10.37,2013-08-21 06:53:00,
2013-08-21 02:58:00,66.6,65.1,30.23,WSW,251,0.0,0.0,95,0.00,FEW,,0.00,WeatherDisplay:10.37,2013-08-21 06:58:00,
2013-08-21 03:03:00,66.5,65.0,30.22,WSW,252,0.0,0.0,95,0.00,FEW,,0.00,WeatherDisplay:10.37,2013-08-21 07:03:00,
2013-08-21 03:08:00,66.4,64.9,30.23,WSW,252,0.0,0.0,95,0.00,FEW,,0.00,WeatherDisplay:10.37,2013-08-21 07:08:00,
2013-08-21 03:13:00,66.3,64.8,30.23,WSW,252,0.0,0.0,95,0.00,FEW,,0.00,WeatherDisplay:10.37,2013-08-21 07:13:00,
2013-08-21 03:18:00,66.2,64.7,30.22,WSW,252,0.0,0.0,95,0.00,FEW,,0.00,WeatherDisplay:10.37,2013-08-21 07:18:00,
2013-08-21 03:23:00,66.1,64.6,30.22,WSW,252,0.0,0.0,95,0.00,FEW,,0.00,WeatherDisplay:10.37,2013-08-21 07:23:00,
2013-08-21 03:28:00,66.1,64.6,30.22,WSW,252,0.0,0.0,95,0.00,FEW,,0.00,WeatherDisplay:10.37,2013-08-21 07:28:00,
2013-08-21 03:33:00,66.0,64.5,30.22,WSW,251,0.0,0.0,95,0.00,FEW,,0.00,WeatherDisplay:10.37,2013-08-21 07:33:00,
2013-08-21 03:38:00,66.0,64.5,30.22,WSW,252,0.0,0.0,95,0.00,FEW,,0.00,WeatherDisplay:10.37,2013-08-21 07:38:00,
2013-08-21 03:43:00,65.9,64.4,30.22,WSW,252,0.0,0.0,95,0.00,FEW,,0.00,WeatherDisplay:10.37,2013-08-21 07:43:00,
2013-08-21 03:48:00,65.8,64.3,30.22,WSW,252,0.0,0.0,95,0.00,FEW,,0.00,WeatherDisplay:10.37,2013-08-21 07:48:00,
2013-08-21 03:53:00,65.8,64.6,30.22,WSW,252,0.0,0.0,96,0.00,FEW,,0.00,WeatherDisplay:10.37,2013-08-21 07:53:00,
2013-08-21 03:58:00,65.7,64.5,30.22,South,188,0.0,0.0,96,0.00,FEW,,0.00,WeatherDisplay:10.37,2013-08-21 07:58:00,
2013-08-21 04:03:00,65.7,64.5,30.22,South,188,0.0,0.0,96,0.00,FEW,,0.00,WeatherDisplay:10.37,2013-08-21 08:03:00,
2013-08-21 04:08:00,65.7,64.5,30.21,South,188,0.0,0.0,96,0.00,FEW,,0.00,WeatherDisplay:10.37,2013-08-21 08:08:00,
2013-08-21 04:13:00,65.7,64.5,30.21,South,188,0.0,0.0,96,0.00,FEW,,0.00,WeatherDisplay:10.37,2013-08-21 08:13:00,
2013-08-21 04:18:00,65.7,64.5,30.21,South,189,0.0,0.0,96,0.00,SCT,,0.00,WeatherDisplay:10.37,2013-08-21 08:18:00,
2013-08-21 04:23:00,65.6,64.4,30.21,South,188,0.0,0.0,96,0.00,SCT,,0.00,WeatherDisplay:10.37,2013-08-21 08:23:00,
2013-08-21 04:28:00,65.6,64.4,30.21,South,188,0.0,0.0,96,0.00,SCT,,0.00,WeatherDisplay:10.37,2013-08-21 08:28:00,
2013-08-21 04:33:00,65.7,64.5,30.21,South,188,0.0,0.0,96,0.00,SCT,,0.00,WeatherDisplay:10.37,2013-08-21 08:33:00,
2013-08-21 04:38:00,65.6,64.4,30.21,South,188,0.0,0.0,96,0.00,SCT,,0.00,WeatherDisplay:10.37,2013-08-21 08:38:00,
2013-08-21 04:43:00,65.6,64.4,30.21,South,188,0.0,0.0,96,0.00,SCT,,0.00,WeatherDisplay:10.37,2013-08-21 08:43:00,
2013-08-21 04:48:00,65.6,64.4,30.21,South,188,0.0,0.0,96,0.00,BKN,,0.00,WeatherDisplay:10.37,2013-08-21 08:48:00,
2013-08-21 04:53:00,65.6,64.4,30.21,South,188,0.0,0.0,96,0.00,BKN,,0.00,WeatherDisplay:10.37,2013-08-21 08:53:00,
2013-08-21 04:58:00,65.6,64.4,30.21,South,188,0.0,0.0,96,0.00,BKN,,0.00,WeatherDisplay:10.37,2013-08-21 08:58:00,
2013-08-21 05:03:00,65.6,64.4,30.21,South,189,0.0,0.0,96,0.00,OVC,,0.00,WeatherDisplay:10.37,2013-08-21 09:03:00,
2013-08-21 05:08:00,65.6,64.4,30.22,South,188,0.0,0.0,96,0.00,OVC,,0.00,WeatherDisplay:10.37,2013-08-21 09:08:00,
2013-08-21 05:13:00,65.7,64.5,30.21,South,188,0.0,0.0,96,0.00,OVC,,0.00,WeatherDisplay:10.37,2013-08-21 09:13:00,
2013-08-21 05:18:00,65.6,64.4,30.21,South,188,0.0,0.0,96,0.00,OVC,,0.00,WeatherDisplay:10.37,2013-08-21 09:18:00,
2013-08-21 05:23:00,65.6,64.4,30.22,South,188,0.0,0.0,96,0.00,OVC,,0.00,WeatherDisplay:10.37,2013-08-21 09:23:00,
2013-08-21 05:28:00,65.5,64.3,30.22,South,189,0.0,0.0,96,0.00,OVC,,0.00,WeatherDisplay:10.37,2013-08-21 09:28:00,
2013-08-21 05:33:00,65.5,64.3,30.22,South,188,0.0,0.0,96,0.00,OVC,,0.00,WeatherDisplay:10.37,2013-08-21 09:33:00,
2013-08-21 05:38:00,65.5,64.3,30.22,SW,221,0.0,0.0,96,0.00,OVC,,0.00,WeatherDisplay:10.37,2013-08-21 09:38:00,
2013-08-21 05:43:00,65.4,64.2,30.22,SW,221,0.0,0.0,96,0.00,OVC,,0.00,WeatherDisplay:10.37,2013-08-21 09:43:00,
2013-08-21 05:48:00,65.4,64.2,30.22,SW,219,0.0,0.0,96,0.00,OVC,,0.00,WeatherDisplay:10.37,2013-08-21 09:48:00,
2013-08-21 05:53:00,65.4,64.2,30.22,SW,219,0.0,0.0,96,0.00,OVC,,0.00,WeatherDisplay:10.37,2013-08-21 09:53:00,
2013-08-21 05:58:00,65.4,64.2,30.22,SW,220,0.0,0.0,96,0.00,OVC,,0.00,WeatherDisplay:10.37,2013-08-21 09:58:00,
2013-08-21 06:03:00,65.5,64.3,30.23,SW,219,0.0,0.0,96,0.00,BKN,,0.00,WeatherDisplay:10.37,2013-08-21 10:03:00,
2013-08-21 06:08:00,65.4,64.2,30.23,SW,219,0.0,0.0,96,0.00,BKN,,0.00,WeatherDisplay:10.37,2013-08-21 10:08:00,
2013-08-21 06:13:00,65.5,64.3,30.23,SW,219,0.0,0.0,96,0.00,BKN,,0.00,WeatherDisplay:10.37,2013-08-21 10:13:00,
2013-08-21 06:18:00,65.4,64.2,30.23,SW,220,0.0,0.0,96,0.00,BKN,,0.00,WeatherDisplay:10.37,2013-08-21 10:18:00,
2013-08-21 06:23:00,65.5,64.3,30.23,SW,219,0.0,0.0,96,0.00,BKN,,0.00,WeatherDisplay:10.37,2013-08-21 10:23:00,
2013-08-21 06:28:00,65.5,64.3,30.24,SW,219,0.0,0.0,96,0.00,BKN,,0.00,WeatherDisplay:10.37,2013-08-21 10:28:00,
2013-08-21 06:33:00,65.4,64.2,30.23,SW,220,0.0,0.0,96,0.00,SCT,,0.00,WeatherDisplay:10.37,2013-08-21 10:33:00,
2013-08-21 06:38:00,65.3,64.1,30.24,SW,219,0.0,0.0,96,0.00,SCT,,0.00,WeatherDisplay:10.37,2013-08-21 10:38:00,
2013-08-21 06:43:00,65.3,64.1,30.24,SW,219,0.0,0.0,96,0.00,SCT,,0.00,WeatherDisplay:10.37,2013-08-21 10:43:00,
2013-08-21 06:48:00,65.2,64.0,30.24,SW,219,0.0,0.0,96,0.00,SCT,,0.00,WeatherDisplay:10.37,2013-08-21 10:48:00,
2013-08-21 06:53:00,65.1,63.9,30.24,SW,220,0.0,0.0,96,0.00,SCT,,0.00,WeatherDisplay:10.37,2013-08-21 10:53:00,
2013-08-21 06:58:00,65.1,63.9,30.24,SW,220,0.0,0.0,96,0.00,SCT,,0.00,WeatherDisplay:10.37,2013-08-21 10:58:00,
2013-08-21 07:03:00,65.1,63.9,30.25,SW,220,0.0,0.0,96,0.00,BKN,,0.00,WeatherDisplay:10.37,2013-08-21 11:03:00,
2013-08-21 07:08:00,65.1,63.9,30.25,SW,219,0.0,0.0,96,0.00,BKN,,0.00,WeatherDisplay:10.37,2013-08-21 11:08:00,
2013-08-21 07:13:00,65.2,64.0,30.25,SW,219,0.0,0.0,96,0.00,BKN,,0.00,WeatherDisplay:10.37,2013-08-21 11:13:00,
2013-08-21 07:18:00,65.3,64.1,30.25,SW,220,0.0,0.0,96,0.00,BKN,,0.00,WeatherDisplay:10.37,2013-08-21 11:18:00,
2013-08-21 07:23:00,65.4,64.2,30.25,SW,220,0.0,0.0,96,0.00,BKN,,0.00,WeatherDisplay:10.37,2013-08-21 11:23:00,
2013-08-21 07:28:00,65.4,64.2,30.25,SW,219,0.0,0.0,96,0.00,BKN,,0.00,WeatherDisplay:10.37,2013-08-21 11:28:00,
2013-08-21 07:33:00,65.5,64.3,30.25,SW,220,0.0,0.0,96,0.00,BKN,,0.00,WeatherDisplay:10.37,2013-08-21 11:33:00,
2013-08-21 07:38:00,65.6,64.4,30.25,SW,219,0.0,0.0,96,0.00,BKN,,0.00,WeatherDisplay:10.37,2013-08-21 11:38:00,
2013-08-21 07:43:00,65.8,64.6,30.26,SW,219,0.0,0.0,96,0.00,BKN,,0.00,WeatherDisplay:10.37,2013-08-21 11:43:00,
2013-08-21 07:48:00,65.9,64.7,30.26,SW,219,0.0,0.0,96,0.00,BKN,,0.00,WeatherDisplay:10.37,2013-08-21 11:48:00,
2013-08-21 07:53:00,66.1,64.9,30.25,SW,219,0.0,0.0,96,0.00,BKN,,0.00,WeatherDisplay:10.37,2013-08-21 11:53:00,
2013-08-21 07:58:00,66.2,65.0,30.26,SW,219,0.0,0.0,96,0.00,BKN,,0.00,WeatherDisplay:10.37,2013-08-21 11:58:00,
2013-08-21 08:03:00,66.3,65.1,30.26,SW,219,0.0,0.0,96,0.00,BKN,,0.00,WeatherDisplay:10.37,2013-08-21 12:03:00,
2013-08-21 08:08:00,66.4,65.2,30.26,SW,219,0.0,0.0,96,0.00,BKN,,0.00,WeatherDisplay:10.37,2013-08-21 12:08:00,
2013-08-21 08:13:00,66.6,65.4,30.26,SW,235,0.0,0.0,96,0.00,BKN,,0.00,WeatherDisplay:10.37,2013-08-21 12:13:00,
2013-08-21 08:18:00,66.7,65.2,30.26,SW,235,0.0,0.0,95,0.00,SCT,,0.00,WeatherDisplay:10.37,2013-08-21 12:18:00,
2013-08-21 08:23:00,67.0,65.5,30.26,SW,235,0.0,0.0,95,0.00,SCT,,0.00,WeatherDisplay:10.37,2013-08-21 12:23:00,
2013-08-21 08:28:00,67.3,65.8,30.26,SW,235,0.0,0.0,95,0.00,SCT,,0.00,WeatherDisplay:10.37,2013-08-21 12:28:00,
2013-08-21 08:33:00,67.6,66.1,30.26,SW,235,0.0,0.0,95,0.00,SCT,,0.00,WeatherDisplay:10.37,2013-08-21 12:33:00,
2013-08-21 08:38:00,67.9,66.4,30.26,SW,235,0.0,0.0,95,0.00,SCT,,0.00,WeatherDisplay:10.37,2013-08-21 12:38:00,
2013-08-21 08:43:00,68.1,66.3,30.26,WSW,242,1.0,1.2,94,0.00,SCT,,0.00,WeatherDisplay:10.37,2013-08-21 12:43:00,
2013-08-21 08:48:00,68.4,66.6,30.26,SW,226,0.1,0.0,94,0.00,SCT,,0.00,WeatherDisplay:10.37,2013-08-21 12:48:00,
2013-08-21 08:53:00,68.7,66.9,30.26,SW,226,0.0,0.0,94,0.00,SCT,,0.00,WeatherDisplay:10.37,2013-08-21 12:53:00,
2013-08-21 08:58:00,69.0,67.2,30.26,SW,229,0.1,1.2,94,0.00,SCT,,0.00,WeatherDisplay:10.37,2013-08-21 12:58:00,
2013-08-21 09:03:00,69.2,67.1,30.26,SW,228,0.0,1.2,93,0.00,FEW,,0.00,WeatherDisplay:10.37,2013-08-21 13:03:00,
2013-08-21 09:08:00,69.6,67.5,30.26,SW,228,0.0,0.0,93,0.00,FEW,,0.00,WeatherDisplay:10.37,2013-08-21 13:08:00,
2013-08-21 09:13:00,70.0,67.6,30.26,WSW,257,0.4,1.2,92,0.00,FEW,,0.00,WeatherDisplay:10.37,2013-08-21 13:13:00,
2013-08-21 09:18:00,70.3,67.9,30.26,SW,236,0.6,1.2,92,0.00,FEW,,0.00,WeatherDisplay:10.37,2013-08-21 13:18:00,
2013-08-21 09:23:00,70.7,67.9,30.26,SSW,211,0.7,1.2,91,0.00,FEW,,0.00,WeatherDisplay:10.37,2013-08-21 13:23:00,
2013-08-21 09:28:00,70.9,67.8,30.26,SSW,210,0.5,1.2,90,0.00,FEW,,0.00,WeatherDisplay:10.37,2013-08-21 13:28:00,
2013-08-21 09:33:00,71.3,68.2,30.26,SE,128,0.6,2.3,90,0.00,FEW,,0.00,WeatherDisplay:10.37,2013-08-21 13:33:00,
2013-08-21 09:38:00,71.7,68.3,30.26,SSW,210,0.1,1.2,89,0.00,FEW,,0.00,WeatherDisplay:10.37,2013-08-21 13:38:00,
2013-08-21 09:43:00,71.9,68.5,30.26,ESE,111,0.1,1.2,89,0.00,FEW,,0.00,WeatherDisplay:10.37,2013-08-21 13:43:00,
2013-08-21 09:48:00,72.1,68.3,30.26,SSW,211,1.2,2.3,88,0.00,FEW,,0.00,WeatherDisplay:10.37,2013-08-21 13:48:00,
2013-08-21 09:53:00,72.2,68.4,30.26,SW,236,0.0,0.0,88,0.00,FEW,,0.00,WeatherDisplay:10.37,2013-08-21 13:53:00,
2013-08-21 09:58:00,72.6,68.8,30.26,WSW,250,1.4,2.3,88,0.00,FEW,,0.00,WeatherDisplay:10.37,2013-08-21 13:58:00,
2013-08-21 10:03:00,72.8,69.0,30.26,West,268,0.0,0.0,88,0.00,FEW,,0.00,WeatherDisplay:10.37,2013-08-21 14:03:00,
2013-08-21 10:08:00,73.2,69.1,30.26,SW,214,0.0,0.0,87,0.00,FEW,,0.00,WeatherDisplay:10.37,2013-08-21 14:08:00,
2013-08-21 10:13:00,73.4,69.0,30.26,SW,222,0.0,0.0,86,0.00,FEW,,0.00,WeatherDisplay:10.37,2013-08-21 14:13:00,
2013-08-21 10:18:00,73.7,69.2,30.27,WSW,250,1.0,2.3,86,0.00,FEW,,0.00,WeatherDisplay:10.37,2013-08-21 14:18:00,
2013-08-21 10:23:00,73.8,69.3,30.27,WSW,255,0.0,0.0,86,0.00,FEW,,0.00,WeatherDisplay:10.37,2013-08-21 14:23:00,
2013-08-21 10:28:00,74.0,69.2,30.27,WSW,242,0.0,0.0,85,0.00,FEW,,0.00,WeatherDisplay:10.37,2013-08-21 14:28:00,
2013-08-21 10:33:00,74.4,69.6,30.27,WSW,242,0.0,0.0,85,0.00,FEW,,0.00,WeatherDisplay:10.37,2013-08-21 14:33:00,
2013-08-21 10:38:00,74.8,69.6,30.27,WSW,242,0.0,0.0,84,0.00,FEW,,0.00,WeatherDisplay:10.37,2013-08-21 14:38:00,
2013-08-21 10:43:00,75.0,69.1,30.26,WSW,243,0.0,1.2,82,0.00,FEW,,0.00,WeatherDisplay:10.37,2013-08-21 14:43:00,
2013-08-21 10:48:00,75.4,69.5,30.26,SW,225,0.0,0.0,82,0.00,FEW,,0.00,WeatherDisplay:10.37,2013-08-21 14:48:00,
2013-08-21 10:53:00,75.6,70.1,30.27,SW,225,0.0,0.0,83,0.00,FEW,,0.00,WeatherDisplay:10.37,2013-08-21 14:53:00,
2013-08-21 10:58:00,76.1,69.8,30.27,SW,225,0.0,0.0,81,0.00,FEW,,0.00,WeatherDisplay:10.37,2013-08-21 14:58:00,
2013-08-21 11:03:00,76.3,69.7,30.27,North,350,0.4,1.2,80,0.00,FEW,,0.00,WeatherDisplay:10.37,2013-08-21 15:03:00,
2013-08-21 11:08:00,76.3,69.7,30.27,North,350,0.0,1.2,80,0.00,FEW,,0.00,WeatherDisplay:10.37,2013-08-21 15:08:00,
2013-08-21 11:13:00,76.6,70.0,30.26,North,350,0.0,0.0,80,0.00,FEW,,0.00,WeatherDisplay:10.37,2013-08-21 15:13:00,
2013-08-21 11:18:00,77.2,69.8,30.26,SW,219,1.0,2.3,78,0.00,FEW,,0.00,WeatherDisplay:10.37,2013-08-21 15:18:00,
2013-08-21 11:23:00,77.7,70.7,30.26,SW,220,0.0,0.0,79,0.00,FEW,,0.00,WeatherDisplay:10.37,2013-08-21 15:23:00,
2013-08-21 11:28:00,77.9,70.5,30.26,SW,220,0.0,0.0,78,0.00,FEW,,0.00,WeatherDisplay:10.37,2013-08-21 15:28:00,
2013-08-21 11:33:00,78.3,70.9,30.26,SW,232,0.1,1.2,78,0.00,FEW,,0.00,WeatherDisplay:10.37,2013-08-21 15:33:00,
2013-08-21 11:38:00,78.4,69.4,30.26,WSW,247,0.0,1.2,74,0.00,FEW,,0.00,WeatherDisplay:10.37,2013-08-21 15:38:00,
2013-08-21 11:43:00,78.9,70.3,30.26,WSW,246,0.0,0.0,75,0.00,FEW,,0.00,WeatherDisplay:10.37,2013-08-21 15:43:00,
2013-08-21 11:48:00,79.4,71.2,30.25,WSW,246,0.0,1.2,76,0.00,FEW,,0.00,WeatherDisplay:10.37,2013-08-21 15:48:00,
2013-08-21 11:53:00,79.8,70.8,30.25,WSW,246,0.0,0.0,74,0.00,FEW,,0.00,WeatherDisplay:10.37,2013-08-21 15:53:00,
2013-08-21 11:58:00,79.6,70.6,30.25,WSW,257,0.0,0.0,74,0.00,FEW,,0.00,WeatherDisplay:10.37,2013-08-21 15:58:00,
2013-08-21 12:03:00,79.8,71.2,30.25,WSW,256,0.1,1.2,75,0.00,FEW,,0.00,WeatherDisplay:10.37,2013-08-21 16:03:00,
2013-08-21 12:08:00,79.6,71.0,30.25,WSW,256,0.0,0.0,75,0.00,FEW,,0.00,WeatherDisplay:10.37,2013-08-21 16:08:00,
2013-08-21 12:13:00,79.6,72.1,30.25,WSW,256,0.0,0.0,78,0.00,FEW,,0.00,WeatherDisplay:10.37,2013-08-21 16:13:00,
2013-08-21 12:18:00,79.7,72.6,30.26,WSW,256,0.0,0.0,79,0.00,FEW,,0.00,WeatherDisplay:10.37,2013-08-21 16:18:00,
2013-08-21 12:23:00,80.0,71.8,30.25,WSW,257,0.0,0.0,76,0.00,FEW,,0.00,WeatherDisplay:10.37,2013-08-21 16:23:00,
2013-08-21 12:28:00,79.8,71.9,30.25,West,270,0.4,1.2,77,0.00,FEW,,0.00,WeatherDisplay:10.37,2013-08-21 16:28:00,
2013-08-21 12:33:00,79.6,71.8,30.25,ESE,108,0.6,1.2,77,0.00,FEW,,0.00,WeatherDisplay:10.37,2013-08-21 16:33:00,
2013-08-21 12:38:00,79.4,70.8,30.25,WSW,246,0.5,2.3,75,0.00,FEW,,0.00,WeatherDisplay:10.37,2013-08-21 16:38:00,
2013-08-21 12:43:00,79.5,72.0,30.25,NNW,327,0.0,0.0,78,0.00,FEW,,0.00,WeatherDisplay:10.37,2013-08-21 16:43:00,
2013-08-21 12:48:00,80.1,72.2,30.25,NNW,327,0.0,0.0,77,0.00,FEW,,0.00,WeatherDisplay:10.37,2013-08-21 16:48:00,
2013-08-21 12:53:00,80.4,72.1,30.24,East,94,1.1,2.0,76,0.00,FEW,,0.00,WeatherDisplay:10.37,2013-08-21 16:53:00,
2013-08-21 12:58:00,80.3,71.6,30.24,WNW,293,1.0,2.3,75,0.00,FEW,,0.00,WeatherDisplay:10.37,2013-08-21 16:58:00,
2013-08-21 13:03:00,79.9,70.9,30.24,SW,218,0.6,2.3,74,0.00,FEW,,0.00,WeatherDisplay:10.37,2013-08-21 17:03:00,
2013-08-21 13:08:00,80.0,71.4,30.24,SSW,198,0.0,0.0,75,0.00,FEW,,0.00,WeatherDisplay:10.37,2013-08-21 17:08:00,
2013-08-21 13:13:00,80.7,71.6,30.24,SSW,193,0.0,1.2,74,0.00,FEW,,0.00,WeatherDisplay:10.37,2013-08-21 17:13:00,
2013-08-21 13:18:00,81.1,72.0,30.24,SSW,207,0.0,0.0,74,0.00,SCT,,0.00,WeatherDisplay:10.37,2013-08-21 17:18:00,
2013-08-21 13:23:00,81.0,71.5,30.24,West,266,1.4,3.5,73,0.00,SCT,,0.00,WeatherDisplay:10.37,2013-08-21 17:23:00,
2013-08-21 13:28:00,80.8,71.3,30.24,West,278,1.2,2.3,73,0.00,SCT,,0.00,WeatherDisplay:10.37,2013-08-21 17:28:00,
2013-08-21 13:33:00,80.6,71.5,30.23,SW,226,0.1,2.3,74,0.00,SCT,,0.00,WeatherDisplay:10.37,2013-08-21 17:33:00,
2013-08-21 13:38:00,80.6,71.1,30.23,SW,219,0.8,1.2,73,0.00,SCT,,0.00,WeatherDisplay:10.37,2013-08-21 17:38:00,
2013-08-21 13:43:00,80.9,71.4,30.23,WSW,238,0.2,1.0,73,0.00,SCT,,0.00,WeatherDisplay:10.37,2013-08-21 17:43:00,
2013-08-21 13:48:00,80.9,71.4,30.23,WNW,287,1.4,3.5,73,0.00,SCT,,0.00,WeatherDisplay:10.37,2013-08-21 17:48:00,
2013-08-21 13:53:00,80.5,71.4,30.23,West,269,0.1,1.2,74,0.00,SCT,,0.00,WeatherDisplay:10.37,2013-08-21 17:53:00,
2013-08-21 13:58:00,80.5,72.2,30.23,WSW,257,0.0,0.0,76,0.00,SCT,,0.00,WeatherDisplay:10.37,2013-08-21 17:58:00,
2013-08-21 14:03:00,81.0,72.3,30.23,South,177,0.0,0.0,75,0.00,SCT,,0.00,WeatherDisplay:10.37,2013-08-21 18:03:00,
2013-08-21 14:08:00,81.0,71.5,30.23,East,91,0.3,1.2,73,0.00,SCT,,0.00,WeatherDisplay:10.37,2013-08-21 18:08:00,
2013-08-21 14:13:00,80.8,72.1,30.23,East,91,0.0,0.0,75,0.00,SCT,,0.00,WeatherDisplay:10.37,2013-08-21 18:13:00,
2013-08-21 14:18:00,80.8,72.5,30.23,East,91,0.0,0.0,76,0.00,SCT,,0.00,WeatherDisplay:10.37,2013-08-21 18:18:00,
2013-08-21 14:23:00,80.5,72.2,30.22,WSW,243,0.0,0.0,76,0.00,SCT,,0.00,WeatherDisplay:10.37,2013-08-21 18:23:00,
2013-08-21 14:28:00,80.5,72.2,30.22,WSW,243,0.0,0.0,76,0.00,SCT,,0.00,WeatherDisplay:10.37,2013-08-21 18:28:00,
2013-08-21 14:33:00,80.3,72.0,30.22,WSW,243,0.1,1.2,76,0.00,SCT,,0.00,WeatherDisplay:10.37,2013-08-21 18:33:00,
2013-08-21 14:38:00,79.9,72.4,30.22,WSW,243,0.0,0.0,78,0.00,SCT,,0.00,WeatherDisplay:10.37,2013-08-21 18:38:00,
2013-08-21 14:43:00,79.6,72.1,30.22,WSW,243,0.0,0.0,78,0.00,SCT,,0.00,WeatherDisplay:10.37,2013-08-21 18:43:00,
2013-08-21 14:48:00,79.1,72.4,30.21,WSW,243,0.0,0.0,80,0.00,SCT,,0.00,WeatherDisplay:10.37,2013-08-21 18:48:00,
2013-08-21 14:53:00,78.1,70.7,30.21,SW,219,0.3,2.3,78,0.00,SCT,,0.00,WeatherDisplay:10.37,2013-08-21 18:53:00,
2013-08-21 14:58:00,76.9,70.6,30.21,SW,220,0.3,1.2,81,0.00,SCT,,0.00,WeatherDisplay:10.37,2013-08-21 18:58:00,
2013-08-21 15:03:00,75.7,70.9,30.21,WSW,245,0.6,1.2,85,0.00,BKN,,0.00,WeatherDisplay:10.37,2013-08-21 19:03:00,
2013-08-21 15:08:00,75.2,70.7,30.20,WSW,245,0.0,0.0,86,0.01,RA,,0.01,WeatherDisplay:10.37,2013-08-21 19:08:00,
2013-08-21 15:13:00,74.8,70.7,30.20,WSW,245,0.0,1.2,87,0.01,RA,,0.01,WeatherDisplay:10.37,2013-08-21 19:13:00,
2013-08-21 15:18:00,75.0,71.9,30.20,WSW,245,0.0,0.0,90,0.02,RA,,0.02,WeatherDisplay:10.37,2013-08-21 19:18:00,
2013-08-21 15:23:00,75.7,72.9,30.20,WSW,245,0.0,0.0,91,0.02,RA,,0.02,WeatherDisplay:10.37,2013-08-21 19:23:00,
2013-08-21 15:28:00,76.3,73.5,30.20,WSW,245,0.1,1.2,91,0.02,RA,,0.02,WeatherDisplay:10.37,2013-08-21 19:28:00,
2013-08-21 15:33:00,76.8,73.0,30.19,SSW,210,0.0,1.2,88,0.02,RA,,0.02,WeatherDisplay:10.37,2013-08-21 19:33:00,
2013-08-21 15:38:00,77.5,72.3,30.19,WSW,242,0.5,1.0,84,0.02,RA,,0.02,WeatherDisplay:10.37,2013-08-21 19:38:00,
2013-08-21 15:43:00,78.2,74.0,30.19,WSW,242,0.0,0.0,87,0.02,RA,,0.02,WeatherDisplay:10.37,2013-08-21 19:43:00,
2013-08-21 15:48:00,78.9,74.4,30.19,NW,316,0.1,1.0,86,0.02,-RA,,0.02,WeatherDisplay:10.37,2013-08-21 19:48:00,
2013-08-21 15:53:00,79.4,74.1,30.19,NW,320,0.0,0.0,84,0.02,-RA,,0.02,WeatherDisplay:10.37,2013-08-21 19:53:00,
2013-08-21 15:58:00,79.6,73.6,30.19,NW,320,0.0,0.0,82,0.02,-RA,,0.02,WeatherDisplay:10.37,2013-08-21 19:58:00,
2013-08-21 16:03:00,80.1,73.7,30.19,NW,319,0.0,0.0,81,0.02,-RA,,0.02,WeatherDisplay:10.37,2013-08-21 20:03:00,
2013-08-21 16:08:00,81.0,73.9,30.19,WSW,251,0.8,2.3,79,0.01,-RA,,0.02,WeatherDisplay:10.37,2013-08-21 20:08:00,
2013-08-21 16:13:00,81.7,74.5,30.19,SW,226,0.0,1.2,79,0.01,-RA,,0.02,WeatherDisplay:10.37,2013-08-21 20:13:00,
2013-08-21 16:18:00,82.5,74.9,30.19,SSE,163,0.2,1.2,78,0.00,SCT,,0.02,WeatherDisplay:10.37,2013-08-21 20:18:00,
2013-08-21 16:23:00,82.2,73.1,30.19,SW,225,0.2,2.3,74,0.00,SCT,,0.02,WeatherDisplay:10.37,2013-08-21 20:23:00,
2013-08-21 16:28:00,82.0,72.9,30.19,SW,224,0.2,1.2,74,0.00,SCT,,0.02,WeatherDisplay:10.37,2013-08-21 20:28:00,
2013-08-21 16:34:00,81.4,72.3,30.19,SW,224,0.0,1.2,74,0.00,SCT,,0.02,WeatherDisplay:10.37,2013-08-21 20:34:00,
2013-08-21 16:39:00,81.3,73.0,30.18,SE,143,0.4,1.2,76,0.00,SCT,,0.02,WeatherDisplay:10.37,2013-08-21 20:39:00,
2013-08-21 16:44:00,81.7,72.2,30.18,WSW,239,0.4,1.2,73,0.00,SCT,,0.02,WeatherDisplay:10.37,2013-08-21 20:44:00,
2013-08-21 16:49:00,82.7,73.2,30.18,SSW,207,0.1,1.2,73,0.00,SCT,,0.02,WeatherDisplay:10.37,2013-08-21 20:49:00,
2013-08-21 16:54:00,84.0,74.0,30.18,SSE,168,0.0,0.0,72,0.00,SCT,,0.02,WeatherDisplay:10.37,2013-08-21 20:54:00,
2013-08-21 16:59:00,85.1,74.2,30.19,SSE,166,0.4,2.3,70,0.00,SCT,,0.02,WeatherDisplay:10.37,2013-08-21 20:59:00,
2013-08-21 17:04:00,85.5,73.7,30.19,SW,214,0.1,0.0,68,0.00,SCT,,0.02,WeatherDisplay:10.37,2013-08-21 21:04:00,
2013-08-21 17:09:00,84.7,73.4,30.19,WSW,243,0.0,0.0,69,0.00,SCT,,0.02,WeatherDisplay:10.37,2013-08-21 21:09:00,
2013-08-21 17:14:00,84.6,74.2,30.18,West,267,0.9,2.0,71,0.00,SCT,,0.02,WeatherDisplay:10.37,2013-08-21 21:14:00,
2013-08-21 17:19:00,84.3,73.9,30.18,WSW,246,1.1,4.0,71,0.00,SCT,,0.02,WeatherDisplay:10.37,2013-08-21 21:19:00,
2013-08-21 17:24:00,83.5,73.9,30.18,WSW,246,0.3,2.0,73,0.00,SCT,,0.02,WeatherDisplay:10.37,2013-08-21 21:24:00,
2013-08-21 17:29:00,83.7,74.1,30.18,SE,125,0.3,1.2,73,0.00,SCT,,0.02,WeatherDisplay:10.37,2013-08-21 21:29:00,
2013-08-21 17:34:00,83.4,73.8,30.18,SE,141,0.0,1.2,73,0.00,SCT,,0.02,WeatherDisplay:10.37,2013-08-21 21:34:00,
2013-08-21 17:39:00,83.7,73.7,30.17,West,269,1.9,3.5,72,0.00,SCT,,0.02,WeatherDisplay:10.37,2013-08-21 21:39:00,
2013-08-21 17:44:00,83.4,74.2,30.17,West,278,0.3,1.2,74,0.00,SCT,,0.02,WeatherDisplay:10.37,2013-08-21 21:44:00,
2013-08-21 17:49:00,83.6,74.4,30.17,WNW,297,0.7,1.2,74,0.00,SCT,,0.02,WeatherDisplay:10.37,2013-08-21 21:49:00,
2013-08-21 17:54:00,83.6,73.6,30.17,ESE,122,0.0,1.2,72,0.00,SCT,,0.02,WeatherDisplay:10.37,2013-08-21 21:54:00,
2013-08-21 17:59:00,83.1,73.5,30.16,ENE,58,0.3,3.5,73,0.00,SCT,,0.02,WeatherDisplay:10.37,2013-08-21 21:59:00,
2013-08-21 18:04:00,83.1,73.5,30.16,North,357,0.7,2.3,73,0.00,SCT,,0.02,WeatherDisplay:10.37,2013-08-21 22:04:00,
2013-08-21 18:09:00,83.0,73.4,30.16,WSW,250,1.0,1.2,73,0.00,SCT,,0.02,WeatherDisplay:10.37,2013-08-21 22:09:00,
2013-08-21 18:14:00,82.4,73.7,30.16,WNW,290,0.2,1.2,75,0.00,SCT,,0.02,WeatherDisplay:10.37,2013-08-21 22:14:00,
2013-08-21 18:19:00,82.1,73.0,30.16,West,262,0.1,1.2,74,0.00,SCT,,0.02,WeatherDisplay:10.37,2013-08-21 22:19:00,
2013-08-21 18:24:00,82.0,72.9,30.16,West,264,0.1,1.2,74,0.00,SCT,,0.02,WeatherDisplay:10.37,2013-08-21 22:24:00,
2013-08-21 18:29:00,81.6,73.3,30.16,West,264,0.0,0.0,76,0.00,SCT,,0.02,WeatherDisplay:10.37,2013-08-21 22:29:00,
2013-08-21 18:34:00,81.4,72.7,30.15,WNW,282,0.2,1.2,75,0.00,SCT,,0.02,WeatherDisplay:10.37,2013-08-21 22:34:00,
2013-08-21 18:39:00,81.1,72.8,30.15,SSW,212,0.2,1.2,76,0.00,SCT,,0.02,WeatherDisplay:10.37,2013-08-21 22:39:00,
2013-08-21 18:44:00,80.6,72.7,30.16,SW,215,0.0,0.0,77,0.00,SCT,,0.02,WeatherDisplay:10.37,2013-08-21 22:44:00,
2013-08-21 18:49:00,80.0,71.8,30.16,WSW,256,0.0,1.2,76,0.00,SCT,,0.02,WeatherDisplay:10.37,2013-08-21 22:49:00,
2013-08-21 18:54:00,79.8,72.3,30.16,WSW,256,0.0,0.0,78,0.00,SCT,,0.02,WeatherDisplay:10.37,2013-08-21 22:54:00,
2013-08-21 18:59:00,79.6,71.8,30.16,WSW,256,0.1,1.2,77,0.00,SCT,,0.02,WeatherDisplay:10.37,2013-08-21 22:59:00,
2013-08-21 19:04:00,79.1,72.0,30.16,WSW,256,0.0,0.0,79,0.00,SCT,,0.02,WeatherDisplay:10.37,2013-08-21 23:04:00,
2013-08-21 19:09:00,78.6,71.5,30.16,WSW,256,0.0,0.0,79,0.00,SCT,,0.02,WeatherDisplay:10.37,2013-08-21 23:09:00,
2013-08-21 19:14:00,78.4,71.0,30.16,WSW,256,0.0,0.0,78,0.00,SCT,,0.02,WeatherDisplay:10.37,2013-08-21 23:14:00,
2013-08-21 19:19:00,78.4,71.3,30.16,WSW,256,0.0,0.0,79,0.00,SCT,,0.02,WeatherDisplay:10.37,2013-08-21 23:19:00,
2013-08-21 19:24:00,78.4,71.3,30.16,WSW,256,0.0,0.0,79,0.00,SCT,,0.02,WeatherDisplay:10.37,2013-08-21 23:24:00,
2013-08-21 19:29:00,78.4,71.0,30.16,SSE,148,0.0,0.0,78,0.00,SCT,,0.02,WeatherDisplay:10.37,2013-08-21 23:29:00,
2013-08-21 19:34:00,78.2,71.2,30.16,SSE,148,0.0,0.0,79,0.00,SCT,,0.02,WeatherDisplay:10.37,2013-08-21 23:34:00,
2013-08-21 19:39:00,77.5,71.2,30.16,SSE,149,0.0,0.0,81,0.00,SCT,,0.02,WeatherDisplay:10.37,2013-08-21 23:39:00,
2013-08-21 19:44:00,77.0,70.7,30.15,SSE,152,0.0,0.0,81,0.00,SCT,,0.02,WeatherDisplay:10.37,2013-08-21 23:44:00,
2013-08-21 19:49:00,76.6,70.7,30.15,SW,225,0.0,0.0,82,0.00,SCT,,0.02,WeatherDisplay:10.37,2013-08-21 23:49:00,
2013-08-21 19:54:00,76.1,70.9,30.15,WSW,249,0.0,0.0,84,0.00,SCT,,0.02,WeatherDisplay:10.37,2013-08-21 23:54:00,
2013-08-21 19:59:00,75.7,70.9,30.15,WSW,249,0.0,0.0,85,0.00,SCT,,0.02,WeatherDisplay:10.37,2013-08-21 23:59:00,
2013-08-21 20:04:00,75.4,70.2,30.16,WSW,249,0.0,0.0,84,0.00,SCT,,0.02,WeatherDisplay:10.37,2013-08-22 00:04:00,
2013-08-21 20:09:00,75.3,70.8,30.16,WSW,247,0.0,0.0,86,0.00,SCT,,0.02,WeatherDisplay:10.37,2013-08-22 00:09:00,
2013-08-21 20:14:00,75.0,70.5,30.16,WSW,247,0.0,0.0,86,0.00,SCT,,0.02,WeatherDisplay:10.37,2013-08-22 00:14:00,
2013-08-21 20:19:00,74.8,70.7,30.16,WSW,248,0.0,0.0,87,0.00,SCT,,0.02,WeatherDisplay:10.37,2013-08-22 00:19:00,
2013-08-21 20:24:00,74.6,70.5,30.16,WSW,247,0.0,0.0,87,0.00,SCT,,0.02,WeatherDisplay:10.37,2013-08-22 00:24:00,
2013-08-21 20:29:00,74.4,70.6,30.16,WSW,247,0.0,0.0,88,0.00,SCT,,0.02,WeatherDisplay:10.37,2013-08-22 00:29:00,
2013-08-21 20:34:00,74.3,70.5,30.16,WSW,247,0.0,0.0,88,0.00,SCT,,0.02,WeatherDisplay:10.37,2013-08-22 00:34:00,
2013-08-21 20:39:00,74.2,70.4,30.16,SSE,162,0.1,1.0,88,0.00,SCT,,0.02,WeatherDisplay:10.37,2013-08-22 00:39:00,
2013-08-21 20:44:00,74.2,70.7,30.16,SSE,162,0.0,0.0,89,0.00,SCT,,0.02,WeatherDisplay:10.37,2013-08-22 00:44:00,
2013-08-21 20:49:00,74.1,70.6,30.16,SE,145,0.0,0.0,89,0.00,SCT,,0.02,WeatherDisplay:10.37,2013-08-22 00:49:00,
2013-08-21 20:54:00,74.0,70.6,30.16,SE,145,0.0,0.0,89,0.00,SCT,,0.02,WeatherDisplay:10.37,2013-08-22 00:54:00,
2013-08-21 20:59:00,73.9,70.5,30.16,SE,145,0.0,0.0,89,0.00,SCT,,0.02,WeatherDisplay:10.37,2013-08-22 00:59:00,
2013-08-21 21:04:00,73.9,70.5,30.16,SE,145,0.0,0.0,89,0.00,SCT,,0.02,WeatherDisplay:10.37,2013-08-22 01:04:00,
2013-08-21 21:09:00,73.7,70.3,30.16,SE,145,0.0,0.0,89,0.00,SCT,,0.02,WeatherDisplay:10.37,2013-08-22 01:09:00,
2013-08-21 21:14:00,73.6,70.5,30.16,SE,145,0.0,0.0,90,0.00,SCT,,0.02,WeatherDisplay:10.37,2013-08-22 01:14:00,
2013-08-21 21:19:00,73.4,70.6,30.16,SE,145,0.0,0.0,91,0.00,BKN,,0.02,WeatherDisplay:10.37,2013-08-22 01:19:00,
2013-08-21 21:24:00,73.4,70.6,30.17,SE,145,0.0,0.0,91,0.00,BKN,,0.02,WeatherDisplay:10.37,2013-08-22 01:24:00,
2013-08-21 21:29:00,73.2,70.4,30.17,SW,228,0.1,3.5,91,0.00,BKN,,0.02,WeatherDisplay:10.37,2013-08-22 01:29:00,
2013-08-21 21:34:00,73.2,70.4,30.17,WSW,238,0.1,1.2,91,0.00,BKN,,0.02,WeatherDisplay:10.37,2013-08-22 01:34:00,
2013-08-21 21:39:00,73.2,70.4,30.17,WSW,238,0.2,1.2,91,0.00,BKN,,0.02,WeatherDisplay:10.37,2013-08-22 01:39:00,
2013-08-21 21:44:00,73.3,70.5,30.17,SW,222,0.6,1.2,91,0.00,BKN,,0.02,WeatherDisplay:10.37,2013-08-22 01:44:00,
2013-08-21 21:49:00,73.4,70.6,30.18,WSW,240,0.0,0.0,91,0.00,BKN,,0.02,WeatherDisplay:10.37,2013-08-22 01:49:00,
2013-08-21 21:54:00,73.4,70.6,30.18,WSW,240,0.0,0.0,91,0.00,BKN,,0.02,WeatherDisplay:10.37,2013-08-22 01:54:00,
2013-08-21 21:59:00,73.4,70.3,30.18,WSW,240,0.0,0.0,90,0.00,BKN,,0.02,WeatherDisplay:10.37,2013-08-22 01:59:00,
2013-08-21 22:04:00,73.4,70.3,30.19,WSW,240,0.0,1.2,90,0.00,BKN,,0.02,WeatherDisplay:10.37,2013-08-22 02:04:00,
2013-08-21 22:09:00,73.4,70.3,30.18,WSW,240,0.0,0.0,90,0.00,BKN,,0.02,WeatherDisplay:10.37,2013-08-22 02:09:00,
2013-08-21 22:14:00,73.3,70.5,30.19,SW,217,0.0,0.0,91,0.00,BKN,,0.02,WeatherDisplay:10.37,2013-08-22 02:14:00,
2013-08-21 22:19:00,73.2,70.1,30.19,WSW,238,0.0,0.0,90,0.00,BKN,,0.02,WeatherDisplay:10.37,2013-08-22 02:19:00,
2013-08-21 22:24:00,73.1,70.3,30.20,WSW,239,0.1,1.0,91,0.00,BKN,,0.02,WeatherDisplay:10.37,2013-08-22 02:24:00,
2013-08-21 22:29:00,72.9,70.1,30.20,WSW,241,0.9,2.0,91,0.00,BKN,,0.02,WeatherDisplay:10.37,2013-08-22 02:29:00,
2013-08-21 22:34:00,73.0,69.9,30.19,WSW,238,2.0,5.0,90,0.00,BKN,,0.02,WeatherDisplay:10.37,2013-08-22 02:34:00,
2013-08-21 22:39:00,73.1,69.7,30.19,SW,221,1.9,3.5,89,0.03,RA,,0.05,WeatherDisplay:10.37,2013-08-22 02:39:00,
2013-08-21 22:44:00,73.0,69.9,30.19,SW,214,1.1,2.3,90,0.04,RA,,0.06,WeatherDisplay:10.37,2013-08-22 02:44:00,
2013-08-21 22:49:00,72.6,69.8,30.19,SW,217,0.1,1.2,91,0.05,RA,,0.08,WeatherDisplay:10.37,2013-08-22 02:49:00,
2013-08-21 22:54:00,71.9,68.2,30.19,SSW,205,3.1,5.8,88,0.06,RA,,0.08,WeatherDisplay:10.37,2013-08-22 02:54:00,
2013-08-21 22:59:00,71.5,68.1,30.20,SW,217,0.0,0.0,89,0.07,RA,,0.09,WeatherDisplay:10.37,2013-08-22 02:59:00,
2013-08-21 23:04:00,71.2,68.1,30.20,WSW,258,0.0,1.2,90,0.07,RA,,0.09,WeatherDisplay:10.37,2013-08-22 03:04:00,
2013-08-21 23:09:00,70.7,67.6,30.20,West,260,0.0,0.0,90,0.08,RA,,0.10,WeatherDisplay:10.37,2013-08-22 03:09:00,
2013-08-21 23:14:00,70.3,67.2,30.21,West,260,0.0,0.0,90,0.09,RA,,0.11,WeatherDisplay:10.37,2013-08-22 03:14:00,
2013-08-21 23:19:00,70.0,66.9,30.21,WSW,238,0.8,1.0,90,0.09,RA,,0.12,WeatherDisplay:10.37,2013-08-22 03:19:00,
2013-08-21 23:24:00,69.6,66.5,30.21,WSW,238,0.0,0.0,90,0.10,RA,,0.12,WeatherDisplay:10.37,2013-08-22 03:24:00,
2013-08-21 23:29:00,69.3,66.6,30.20,WSW,238,0.2,1.0,91,0.11,RA,,0.14,WeatherDisplay:10.37,2013-08-22 03:29:00,
2013-08-21 23:34:00,68.7,66.3,30.20,WSW,238,0.0,0.0,92,0.12,-RA,,0.14,WeatherDisplay:10.37,2013-08-22 03:34:00,
2013-08-21 23:39:00,68.3,65.9,30.20,ESE,113,0.0,0.0,92,0.10,-RA,,0.15,WeatherDisplay:10.37,2013-08-22 03:39:00,
2013-08-21 23:44:00,68.2,66.1,30.19,ESE,115,0.0,0.0,93,0.10,-RA,,0.16,WeatherDisplay:10.37,2013-08-22 03:44:00,
2013-08-21 23:49:00,68.0,65.9,30.19,ESE,113,0.0,0.0,93,0.10,-RA,,0.17,WeatherDisplay:10.37,2013-08-22 03:49:00,
2013-08-21 23:54:00,68.0,65.9,30.19,WSW,258,0.0,0.0,93,0.10,-RA,,0.18,WeatherDisplay:10.37,2013-08-22 03:54:00,
2013-08-21 23:59:00,67.9,65.8,30.19,WSW,249,1.0,3.5,93,0.10,-RA,,0.19,WeatherDisplay:10.37,2013-08-22 03:59:00,